{"data":{"norad_id":69511,"epoch":"2026-09-20T04:29:54.009888Z","epoch_age_seconds":52503,"freshness":"FRESH","line1":"1 69511U 26133D   26263.18743067  .00021163  00000+0  63565-3 0  9992","line2":"2 69511  53.1570 231.3446 0001413  94.4672 265.6492 15.34402795 16718","mean_motion":15.34402795,"eccentricity":0.0001413,"inclination_deg":53.157,"raan_deg":231.3446,"arg_perigee_deg":94.4672,"mean_anomaly_deg":265.6492,"bstar":0.00063565,"rev_number":1671,"period_min":93.847587132426,"perigee_km":461.72832333858,"apogee_km":463.66154244281,"semimajor_km":6840.8319328907,"source":"CELESTRAK","updated_at":"2026-09-20T09:00:44.210959Z"}}